[Date Prev][Date Next][Thread Prev][Thread Next] - [Date Index][Thread Index][Author Index]

MIR & ISS Keps 6-18



MIR
1 16609U 86017A   99169.04594384  .00043964  00000-0  31559-3 0  5814
2 16609  51.6644 339.5743 0006608 240.0193 120.0300 15.73169340761541
ISS
1 25544U 98067A   99169.16392752 -.00006246  00000-0 -72193-4 0  7049
2 25544  51.5933 192.9575 0011353 357.5816   2.5133 15.58919361 32753

----
Via the sarex mailing list at AMSAT.ORG courtesy of AMSAT-NA.
To unsubscribe, send "unsubscribe sarex" to Majordomo@amsat.org



AMSAT Top AMSAT Home